Fairbanks Eiels, AK

3:03 PM AKDT on July 25, 2017 (GMT -0800)
Eielson Air Force Base

Weather History for PAEI - May, 2014

Change the Weather History Date:

Sunday, May 4, 2014

  Actual Average Record
Temperature  
Mean Temperature 53 °F -  
Max Temperature 65 °F 52 °F 68 °F (1960)
Min Temperature 42 °F 32 °F 9 °F (1992)
Degree Days  
Heating Degree Days 12    
Growing Degree Days 3 (Base 50)    
Moisture  
Dew Point 36 °F    
Average Humidity 58    
Maximum Humidity 81    
Minimum Humidity 33    
Precipitation  
Precipitation 0.00 in - - ()
Sea Level Pressure  
Sea Level Pressure 29.89 in    
Wind  
Wind Speed 6 mph (WSW)    
Max Wind Speed 17 mph    
Max Gust Speed -    
Visibility 10 miles    
Events Rain    
Averages and records for this station are not official NWS values.
T = Trace of Precipitation, MM = Missing Value Source: NWS Daily Summary

Daily Weather History Graph

Daily Weather History Graph

Search for Another Location

Airport or City:

Trip Planner

Search our weather history database for the weather conditions in past years. The results will help you decide how hot, cold, wet, or windy it might be!

Date:

Astronomy

May. 04, 2014 Rise Set
Actual Time 5:05 AM AKDT 10:27 PM AKDT
Civil Twilight 3:47 AM AKDT 11:47 PM AKDT
Nautical Twilight Sun does not set Sun does not set
Astronomical Twilight Sun does not set Sun does not set
Moon 9:32 AM AKDT (5/4) 2:46 AM AKDT (5/4)
Length of Visible Light 19h 59m
Length of Day
17h 22m
Waxing Crescent, 29% of the Moon is Illuminated
May 4
Waxing Crescent
May 6
First Quarter
May 14
Full
May 21
Last Quarter
May 28
New

Hourly Weather History & Observations

Time (AKDT) Temp. Windchill Dew Point Humidity Pressure Visibility Wind Dir Wind Speed Gust Speed Precip Events Conditions
12:58 AM 49.3 °F - 35.6 °F 59% 29.86 in 10.0 mi SSE 3.5 mph - N/A   Mostly Cloudy
1:58 AM 44.4 °F 40.0 °F 34.5 °F 68% 29.86 in 10.0 mi South 8.1 mph - N/A   Clear
2:58 AM 44.1 °F - 34.3 °F 69% 29.86 in 10.0 mi Calm Calm - N/A   Scattered Clouds
3:58 AM 42.3 °F 38.6 °F 33.8 °F 72% 29.87 in 10.0 mi South 5.8 mph - N/A   Overcast
4:58 AM 42.8 °F 38.6 °F 34.5 °F 73% 29.87 in 10.0 mi SSE 6.9 mph - N/A   Overcast
5:58 AM 44.2 °F 41.0 °F 35.4 °F 71% 29.87 in 10.0 mi South 5.8 mph - N/A   Mostly Cloudy
6:58 AM 46.2 °F 42.2 °F 36.3 °F 68% 29.88 in 10.0 mi South 8.1 mph - N/A   Partly Cloudy
7:58 AM 48.6 °F - 37.6 °F 66% 29.89 in 10.0 mi SSE 8.1 mph - N/A   Mostly Cloudy
8:58 AM 54.3 °F - 35.6 °F 49% 29.89 in 10.0 mi South 3.5 mph - N/A   Mostly Cloudy
9:58 AM 54.0 °F - 36.3 °F 51% 29.89 in 10.0 mi Calm Calm - 0.00 in Rain Light Rain
10:58 AM 58.1 °F - 36.5 °F 44% 29.88 in 10.0 mi Variable 4.6 mph - 0.00 in   Mostly Cloudy
11:58 AM 60.6 °F - 36.9 °F 41% 29.88 in 10.0 mi SW 3.5 mph - N/A   Mostly Cloudy
12:58 PM 62.8 °F - 36.1 °F 37% 29.86 in 10.0 mi WNW 3.5 mph - N/A   Partly Cloudy
1:58 PM 63.7 °F - 35.8 °F 35% 29.85 in 10.0 mi Calm Calm - N/A   Scattered Clouds
2:58 PM 64.0 °F - 34.3 °F 33% 29.85 in 10.0 mi West 8.1 mph - N/A   Mostly Cloudy
3:58 PM 62.6 °F - 33.6 °F 34% 29.85 in 10.0 mi WNW 6.9 mph - N/A   Scattered Clouds
4:58 PM 61.0 °F - 33.3 °F 35% 29.86 in 10.0 mi WNW 16.1 mph - N/A   Overcast
5:58 PM 58.5 °F - 35.1 °F 42% 29.87 in 10.0 mi NNW 17.3 mph - N/A   Mostly Cloudy
6:58 PM 55.0 °F - 37.0 °F 51% 29.90 in 10.0 mi NW 13.8 mph - N/A   Scattered Clouds
7:58 PM 51.8 °F - 36.0 °F 55% 29.91 in 10.0 mi NW 9.2 mph - N/A   Overcast
8:58 PM 49.6 °F - 36.9 °F 61% 29.93 in 10.0 mi WNW 10.4 mph - N/A   Overcast
9:58 PM 47.1 °F - 38.3 °F 71% 29.95 in 10.0 mi WNW 6.9 mph - 0.00 in   Overcast
10:13 PM 46.4 °F 44.3 °F 37.4 °F 71% 29.93 in 10.0 mi WNW 4.6 mph - N/A Rain Light Rain
10:28 PM 46.4 °F 43.5 °F 39.2 °F 76% 29.93 in 10.0 mi WNW 5.8 mph - N/A Rain Light Rain
10:58 PM 45.0 °F 42.6 °F 39.6 °F 81% 29.96 in 10.0 mi West 4.6 mph - 0.00 in   Overcast
11:43 PM 44.6 °F 42.2 °F 37.4 °F 76% 29.94 in 10.0 mi West 4.6 mph - N/A   Overcast
11:58 PM 43.9 °F 40.5 °F 37.8 °F 79% 29.96 in 10.0 mi WNW 5.8 mph - 0.00 in   Overcast